This is the latest recevied weather packets stored in our database for station/object DM4XI-13. If no packets are shown the sender has not sent any weather packets the latest 10 day(s).
| Time | Temp. | Humidity | Pressure | Rain* | Wind** | Luminosity | Snow |
|---|---|---|---|---|---|---|---|
| 1777136889 | 19.44° C | 25% | 1013 hPa | 0 mm | 0.45 m/s, 230° | 57 W/m² | - |
| 1777136828 | 19.44° C | 25% | 1013.1 hPa | 0 mm | 0.89 m/s, 264° | 59 W/m² | - |
| 1777136768 | 19.44° C | 25% | 1013.1 hPa | 0 mm | 0.89 m/s, 281° | 60 W/m² | - |
| 1777136706 | 19.44° C | 24% | 1013 hPa | 0 mm | 0.89 m/s, 199° | 60 W/m² | - |
| 1777136646 | 19.44° C | 24% | 1012.9 hPa | 0 mm | 1.34 m/s, 297° | 59 W/m² | - |
| 1777136581 | 19.44° C | 25% | 1013 hPa | 0 mm | 0.45 m/s, 219° | 61 W/m² | - |
| 1777136520 | 19.44° C | 25% | 1013 hPa | 0 mm | 0.89 m/s, 316° | 61 W/m² | - |
| 1777136459 | 19.44° C | 24% | 1013 hPa | 0 mm | 0.89 m/s, 262° | 64 W/m² | - |
| 1777136398 | 19.44° C | 24% | 1013 hPa | 0 mm | 0.89 m/s, 267° | 62 W/m² | - |
| 1777136337 | 19.44° C | 23% | 1013 hPa | 0 mm | 1.79 m/s, 343° | 63 W/m² | - |
| 1777136276 | 19.44° C | 24% | 1012.9 hPa | 0 mm | 1.34 m/s, 262° | 63 W/m² | - |
| 1777136215 | 19.44° C | 23% | 1012.9 hPa | 0 mm | 0.89 m/s, 262° | 62 W/m² | - |
| 1777136154 | 19.44° C | 23% | 1012.7 hPa | 0 mm | 1.34 m/s, 250° | 59 W/m² | - |
| 1777136093 | 19.44° C | 23% | 1013 hPa | 0 mm | 0.89 m/s, 309° | 62 W/m² | - |
| 1777136032 | 20° C | 23% | 1012.7 hPa | 0 mm | 1.79 m/s, 319° | 62 W/m² | - |
| 1777135971 | 20° C | 22% | 1012.8 hPa | 0 mm | 3.13 m/s, 318° | 64 W/m² | - |
| 1777135910 | 20° C | 23% | 1012.9 hPa | 0 mm | 2.68 m/s, 245° | 64 W/m² | - |
| 1777135849 | 20° C | 22% | 1012.8 hPa | 0 mm | 1.34 m/s, 338° | 66 W/m² | - |
| 1777135788 | 20° C | 21% | 1013.1 hPa | 0 mm | 1.79 m/s, 300° | 68 W/m² | - |
| 1777135727 | 20° C | 21% | 1012.8 hPa | 0 mm | 1.79 m/s, 294° | 70 W/m² | - |
| 1777135666 | 20° C | 23% | 1012.9 hPa | 0 mm | 0.45 m/s, 332° | 67 W/m² | - |
| 1777135605 | 20° C | 22% | 1012.9 hPa | 0 mm | 0.45 m/s, 219° | 68 W/m² | - |
| 1777135544 | 20° C | 21% | 1012.8 hPa | 0 mm | 1.34 m/s, 307° | 68 W/m² | - |
| 1777135483 | 20° C | 22% | 1012.9 hPa | 0 mm | 1.79 m/s, 308° | 72 W/m² | - |
| 1777135422 | 20° C | 22% | 1012.8 hPa | 0 mm | 1.79 m/s, 305° | 68 W/m² | - |
* Rain latest hour (hover to see other rain measurements)
** Current wind speed in m/s (hover to see current wind gust speed)